TAP827 LIMC-LPPT

Flight info

Callsign TAP827
Flight time N/A
Altitude 33000
Route DOGUB6TXNEDED6I/35R NEDED DCT GEKBA DCT VAMTU DCT KOLON DCT GANGU DCT PADKO DCT DIVKO DCT NILDU/N0459F350 DCT NENDA DCT BCN DCT ANTON DCT XIKEN DCT OSLAP DCT SALAS DCT RAMON DCT NEXAS DCT DISVU DCT ADUXO N975 PALIO DCT AKOKI DCT GOTOR DCT TLD DCT NATPA DCT MELON DCT CCS DCT ELVAR DCT UPULO
Aircraft A321/M-SDE3FGHIRWY/LB1

Departure

Time 2026-05-05 21:59
Airport Milan Malpensa International Airport (LIMC)

Arrival

Time N/A
Airport Lisbon Humberto Delgado Airport (LPPT)
Time Latitude Longitude Altitude Speed Heading
2026-05-05 21:04 45.62540 8.71609 759 ft 0 kts 170°
2026-05-05 21:27 45.62542 8.71608 759 ft 2 kts 170°
2026-05-05 21:27 45.62568 8.71601 757 ft 4 kts 168°
2026-05-05 21:27 45.62591 8.71594 757 ft 4 kts 167°
2026-05-05 21:27 45.62612 8.71580 756 ft 4 kts 113°
2026-05-05 21:28 45.62614 8.71545 756 ft 3 kts 79°
2026-05-05 21:28 45.62612 8.71535 756 ft 0 kts 79°
2026-05-05 21:33 45.62612 8.71534 756 ft 0 kts 79°
2026-05-05 21:34 45.62615 8.71557 754 ft 7 kts 79°
2026-05-05 21:34 45.62625 8.71622 755 ft 6 kts 78°
2026-05-05 21:34 45.62632 8.71673 759 ft 5 kts 78°
2026-05-05 21:34 45.62638 8.71711 759 ft 3 kts 78°
2026-05-05 21:35 45.62643 8.71744 758 ft 6 kts 78°
2026-05-05 21:35 45.62653 8.71816 759 ft 7 kts 78°
2026-05-05 21:35 45.62662 8.71878 759 ft 6 kts 83°
2026-05-05 21:35 45.62666 8.71924 759 ft 0 kts 82°
2026-05-05 21:36 45.62670 8.71965 754 ft 10 kts 83°
2026-05-05 21:36 45.62633 8.72033 757 ft 9 kts 157°
2026-05-05 21:37 45.62581 8.72052 757 ft 7 kts 166°
2026-05-05 21:37 45.62519 8.72073 759 ft 14 kts 166°
2026-05-05 21:37 45.62423 8.72099 758 ft 12 kts 170°
2026-05-05 21:37 45.62353 8.72117 755 ft 9 kts 168°
2026-05-05 21:38 45.62294 8.72135 759 ft 8 kts 168°
2026-05-05 21:38 45.62246 8.72149 758 ft 6 kts 168°
2026-05-05 21:38 45.62208 8.72161 757 ft 5 kts 168°
2026-05-05 21:38 45.62167 8.72181 758 ft 5 kts 129°
2026-05-05 21:39 45.62175 8.72205 755 ft 4 kts 58°
2026-05-05 21:39 45.62205 8.72273 758 ft 8 kts 59°
2026-05-05 21:39 45.62210 8.72289 756 ft 0 kts 66°
2026-05-05 21:42 45.62211 8.72291 759 ft 2 kts 66°
2026-05-05 21:43 45.62230 8.72371 758 ft 13 kts 75°
2026-05-05 21:43 45.62248 8.72498 757 ft 12 kts 80°
2026-05-05 21:43 45.62262 8.72607 759 ft 10 kts 78°
2026-05-05 21:43 45.62275 8.72698 759 ft 8 kts 78°
2026-05-05 21:44 45.62292 8.72816 758 ft 17 kts 79°
2026-05-05 21:44 45.62299 8.72974 758 ft 15 kts 110°
2026-05-05 21:44 45.62217 8.73045 757 ft 14 kts 167°
2026-05-05 21:44 45.62130 8.73069 757 ft 12 kts 171°
2026-05-05 21:45 45.62052 8.73090 759 ft 11 kts 167°
2026-05-05 21:45 45.61979 8.73111 756 ft 10 kts 169°
2026-05-05 21:45 45.61909 8.73131 755 ft 10 kts 169°
2026-05-05 21:45 45.61884 8.73138 758 ft 0 kts 169°
2026-05-05 21:46 45.61883 8.73138 758 ft 2 kts 169°
2026-05-05 21:46 45.61823 8.73154 759 ft 12 kts 168°
2026-05-05 21:46 45.61752 8.73199 757 ft 11 kts 137°
2026-05-05 21:46 45.61710 8.73277 758 ft 9 kts 123°
2026-05-05 21:47 45.61678 8.73346 756 ft 8 kts 124°
2026-05-05 21:47 45.61661 8.73380 755 ft 0 kts 125°
2026-05-05 21:48 45.61657 8.73388 757 ft 5 kts 125°
2026-05-05 21:49 45.61638 8.73427 757 ft 0 kts 126°
2026-05-05 21:51 45.61626 8.73453 759 ft 7 kts 122°
2026-05-05 21:52 45.61616 8.73475 757 ft 0 kts 121°
2026-05-05 21:55 45.61610 8.73489 760 ft 6 kts 122°
2026-05-05 21:55 45.61592 8.73549 757 ft 6 kts 108°
2026-05-05 21:56 45.61587 8.73597 759 ft 0 kts 83°
2026-05-05 21:57 45.61589 8.73629 759 ft 9 kts 84°
2026-05-05 21:58 45.61632 8.73725 756 ft 13 kts 19°
2026-05-05 21:58 45.61671 8.73722 756 ft 3 kts 350°
2026-05-05 21:58 45.61775 8.73697 758 ft 43 kts 350°
2026-05-05 21:58 45.62298 8.73550 762 ft 107 kts 348°
2026-05-05 21:59 45.63203 8.73301 757 ft 155 kts 348°
2026-05-05 21:59 45.64351 8.72951 1050 ft 170 kts 349°
2026-05-05 21:59 45.65506 8.72698 1758 ft 168 kts 355°
2026-05-05 21:59 45.66683 8.72651 2334 ft 171 kts
2026-05-05 22:00 45.67912 8.72650 2648 ft 186 kts
2026-05-05 22:00 45.69283 8.72642 2811 ft 207 kts
2026-05-05 22:00 45.70803 8.72631 2960 ft 227 kts
2026-05-05 22:00 45.72346 8.72070 3260 ft 240 kts 324°
2026-05-05 22:01 45.73344 8.70210 3868 ft 239 kts 285°
2026-05-05 22:01 45.73372 8.67883 4500 ft 236 kts 251°
2026-05-05 22:01 45.72843 8.65654 5166 ft 236 kts 249°
2026-05-05 22:01 45.72292 8.63416 5826 ft 239 kts 250°
2026-05-05 22:02 45.71745 8.61191 6461 ft 241 kts 249°
2026-05-05 22:02 45.70986 8.59026 6876 ft 252 kts 237°
2026-05-05 22:02 45.70020 8.56813 7122 ft 270 kts 237°
2026-05-05 22:02 45.68997 8.54514 7718 ft 274 kts 234°
2026-05-05 22:03 45.67712 8.52504 8370 ft 275 kts 217°
2026-05-05 22:03 45.66061 8.51127 9045 ft 276 kts 202°
2026-05-05 22:03 45.64272 8.50099 9711 ft 278 kts 202°
2026-05-05 22:03 45.62485 8.49063 10247 ft 285 kts 202°
2026-05-05 22:04 45.60581 8.47951 10371 ft 305 kts 202°
2026-05-05 22:04 45.58547 8.46762 10495 ft 324 kts 202°
2026-05-05 22:04 45.56402 8.45510 10622 ft 342 kts 202°
2026-05-05 22:04 45.54134 8.44219 10748 ft 358 kts 201°
2026-05-05 22:05 45.51752 8.42979 11002 ft 368 kts 200°
2026-05-05 22:05 45.49317 8.41785 11456 ft 372 kts 199°
2026-05-05 22:05 45.46851 8.40601 11965 ft 374 kts 199°
2026-05-05 22:05 45.44409 8.39429 12468 ft 376 kts 199°
2026-05-05 22:06 45.41924 8.38226 12974 ft 377 kts 200°
2026-05-05 22:06 45.39423 8.37003 13465 ft 379 kts 200°
2026-05-05 22:06 45.36925 8.35772 13906 ft 381 kts 200°
2026-05-05 22:06 45.34413 8.34527 14320 ft 382 kts 200°
2026-05-05 22:07 45.31900 8.33279 14722 ft 383 kts 200°
2026-05-05 22:07 45.29411 8.32049 15115 ft 384 kts 200°
2026-05-05 22:07 45.26883 8.30804 15517 ft 384 kts 200°
2026-05-05 22:07 45.24351 8.29560 15972 ft 384 kts 200°
2026-05-05 22:08 45.21823 8.28323 16361 ft 384 kts 200°
2026-05-05 22:08 45.19288 8.27084 16762 ft 385 kts 200°
2026-05-05 22:08 45.16748 8.25843 17159 ft 386 kts 200°
2026-05-05 22:08 45.14201 8.24597 17558 ft 387 kts 200°
2026-05-05 22:09 45.11668 8.23376 17955 ft 389 kts 199°
2026-05-05 22:09 45.09010 8.22554 18333 ft 393 kts 191°
2026-05-05 22:09 45.06302 8.21970 18697 ft 394 kts 191°
2026-05-05 22:09 45.03585 8.21390 19059 ft 395 kts 191°
2026-05-05 22:10 45.00863 8.20809 19421 ft 396 kts 191°
2026-05-05 22:10 44.98130 8.20222 19788 ft 397 kts 191°
2026-05-05 22:10 44.95425 8.19641 20132 ft 398 kts 191°
2026-05-05 22:10 44.92673 8.19049 20476 ft 400 kts 191°
2026-05-05 22:11 44.89917 8.18460 20820 ft 401 kts 191°
2026-05-05 22:11 44.87140 8.17866 21164 ft 402 kts 191°
2026-05-05 22:11 44.84367 8.17268 21523 ft 403 kts 191°
2026-05-05 22:11 44.81631 8.16675 21842 ft 404 kts 191°
2026-05-05 22:12 44.78837 8.16071 22173 ft 405 kts 191°
2026-05-05 22:12 44.76037 8.15470 22508 ft 407 kts 191°
2026-05-05 22:12 44.73227 8.14872 22843 ft 408 kts 191°
2026-05-05 22:12 44.70442 8.14053 23151 ft 408 kts 198°
2026-05-05 22:13 44.67842 8.12623 23500 ft 406 kts 207°
2026-05-05 22:13 44.65396 8.10634 23776 ft 407 kts 212°
2026-05-05 22:13 44.62981 8.08545 24048 ft 408 kts 212°
2026-05-05 22:13 44.60557 8.06459 24329 ft 408 kts 212°
2026-05-05 22:14 44.58131 8.04378 24573 ft 409 kts 212°
2026-05-05 22:14 44.55689 8.02288 24801 ft 410 kts 212°
2026-05-05 22:14 44.53255 8.00205 25039 ft 411 kts 212°
2026-05-05 22:14 44.50842 7.98143 25271 ft 411 kts 212°
2026-05-05 22:15 44.48393 7.96056 25517 ft 412 kts 212°
2026-05-05 22:15 44.45939 7.93967 25713 ft 413 kts 212°
2026-05-05 22:15 44.44311 7.92581 25846 ft 413 kts 212°
2026-05-05 22:15 44.41038 7.89794 26228 ft 410 kts 212°
2026-05-05 22:16 44.39422 7.88418 26426 ft 409 kts 212°
2026-05-05 22:16 44.36205 7.85686 26794 ft 407 kts 212°
2026-05-05 22:16 44.33785 7.83636 27048 ft 405 kts 212°
2026-05-05 22:16 44.32184 7.82280 27224 ft 404 kts 212°
2026-05-05 22:17 44.29777 7.80240 27494 ft 403 kts 212°
2026-05-05 22:17 44.27401 7.78166 27720 ft 401 kts 216°
2026-05-05 22:17 44.25244 7.75700 27964 ft 399 kts 221°
2026-05-05 22:17 44.23197 7.73154 28189 ft 398 kts 221°
2026-05-05 22:18 44.21129 7.70597 28452 ft 396 kts 221°
2026-05-05 22:18 44.19052 7.68048 28746 ft 395 kts 221°
2026-05-05 22:18 44.16991 7.65527 29002 ft 393 kts 221°
2026-05-05 22:18 44.14968 7.63031 29229 ft 392 kts 224°
2026-05-05 22:19 44.13119 7.60245 29465 ft 391 kts 228°
2026-05-05 22:19 44.11339 7.57376 29786 ft 389 kts 228°
2026-05-05 22:19 44.09573 7.54541 30111 ft 386 kts 228°
2026-05-05 22:19 44.07809 7.51720 30325 ft 384 kts 228°
2026-05-05 22:20 44.06054 7.48920 30566 ft 382 kts 228°
2026-05-05 22:20 44.04335 7.46174 30754 ft 381 kts 228°
2026-05-05 22:20 44.02591 7.43393 30962 ft 381 kts 228°
2026-05-05 22:20 44.00851 7.40622 31166 ft 380 kts 228°
2026-05-05 22:21 43.99110 7.37854 31379 ft 379 kts 228°
2026-05-05 22:21 43.97371 7.35097 31533 ft 379 kts 228°
2026-05-05 22:21 43.95632 7.32338 31724 ft 379 kts 228°
2026-05-05 22:21 43.93917 7.29613 31929 ft 379 kts 228°
2026-05-05 22:22 43.92185 7.26859 32149 ft 378 kts 228°
2026-05-05 22:22 43.90460 7.24120 32384 ft 377 kts 228°
2026-05-05 22:22 43.88736 7.21386 32638 ft 376 kts 228°
2026-05-05 22:22 43.87014 7.18661 32887 ft 375 kts 228°
2026-05-05 22:23 43.85292 7.15943 33143 ft 373 kts 227°
2026-05-05 22:23 43.83580 7.13247 33360 ft 372 kts 228°
2026-05-05 22:23 43.81895 7.10594 33489 ft 371 kts 228°
2026-05-05 22:23 43.80190 7.07912 33636 ft 370 kts 227°
2026-05-05 22:24 43.78486 7.05231 33820 ft 370 kts 227°
2026-05-05 22:24 43.76783 7.02554 33993 ft 369 kts 227°
2026-05-05 22:24 43.75085 6.99883 34150 ft 369 kts 227°
2026-05-05 22:24 43.73422 6.97234 34285 ft 369 kts 230°
2026-05-05 22:25 43.71991 6.94270 34404 ft 372 kts 239°
2026-05-05 22:25 43.70925 6.90989 34526 ft 375 kts 244°
2026-05-05 22:25 43.69949 6.87639 34644 ft 376 kts 244°
2026-05-05 22:25 43.68963 6.84282 34773 ft 377 kts 244°
2026-05-05 22:26 43.67968 6.80921 34923 ft 377 kts 244°
2026-05-05 22:26 43.65961 6.74152 34960 ft 382 kts 244°
2026-05-05 22:27 43.63954 6.67380 34958 ft 383 kts 244°
2026-05-05 22:27 43.61935 6.60572 34949 ft 382 kts 244°
2026-05-05 22:28 43.59928 6.53821 34946 ft 381 kts 244°
2026-05-05 22:28 43.57899 6.47010 34948 ft 382 kts 244°
2026-05-05 22:29 43.55891 6.40304 34944 ft 379 kts 245°
2026-05-05 22:29 43.53873 6.33579 34945 ft 379 kts 244°